Regional Weather Roundup
Issued by NWS

Home | Current Version | Previous Version | Text Only | Print | Product List | Glossary On
Versions: 1 2 3 4 5 6 7 8 9 10 11 12 13 14 15 16 17 18 19 20 21 22 23 24 25 26 27 28 29 30 31 32 33 34 35 36 37 38 39 40 41 42 43 44 45 46 47 48 49 50
000
ASUS43 KMPX 260501
RWRMN
WEATHER ROUNDUP FOR MINNESOTA
NATIONAL WEATHER SERVICE TWIN CITIES/CHANHASSEN MN
1200 AM CDT MON SEP 26 2016


NOTE: "FAIR" INDICATES FEW OR NO CLOUDS BELOW 12,000 FEET WITH NO
SIGNIFICANT WEATHER AND/OR OBSTRUCTIONS TO VISIBILITY. N/A MEANS
CURRENT SKY AND/OR WEATHER CONDITIONS ARE NOT AVAILABLE.

MNZ060>063-068>070-260600-
   Twin Cities Metro

CITY           SKY/WX    TMP DP  RH WIND       PRES   REMARKS
TWIN CITIES    CLEAR     56  44  64 W13       29.98F
ST PAUL        PTCLDY    56  44  64 W12G22    29.98F
CRYSTAL        CLEAR     54  42  64 W10G18    29.96F
BLAINE         CLEAR     55  45  67 W9        29.96F
LAKEVILLE      CLEAR     52  46  82 W6        30.00S
EDEN PRAIRIE   CLEAR     52  46  80 W6        29.98F
LAKEVILLE      CLEAR     52  46  82 W6        30.00S
SOUTH ST PAUL  CLEAR     56  45  65 W9        29.98S
LAKE ELMO      FAIR      54  45  71 W13       29.97F
$$
MNZ001>005-007-008-013>017-022>024-027-028-260600-
   Northwest Minnesota

CITY           SKY/WX    TMP DP  RH WIND       PRES   REMARKS
BEMIDJI        LGT RAIN  48  46  93 W20G30    29.86R
HALLOCK        PTCLDY    54  45  71 W16       29.88F
ROSEAU         LGT RAIN  52  46  82 W14       29.81F
WARROAD        DRIZZLE   50  46  87 W15G25    29.79S
THIEF RVR FALL CLOUDY    51  47  86 W13       29.89F
CROOKSTON      CLOUDY    52  46  82 NW15      29.92F
FOSSTON        RAIN      48  46  93 NW10      29.92F
DETROIT LAKES  CLOUDY    50  46  87 W7        29.96F
MOORHEAD       CLOUDY    55  39  54 W18       29.98F
PARK RAPIDS    LGT RAIN  50  45  83 W18G30    29.91S
MAHNOMEN       CLOUDY    49  46  89 W12       29.93F
$$
MNZ006-009>011-018-025>026-260600-
   North Central Minnesota

CITY           SKY/WX    TMP DP  RH WIND       PRES   REMARKS
BAUDETTE       RAIN      50  48  93 W21G33    29.73F
FLAG ISLAND    LGT RAIN  52  48  87 NW24G35   29.71F
INTL FALLS     LGT RAIN  52  50  93 W14G22    29.67S
WASKISH        LGT RAIN  52  48  87 NW22G38   29.78S
BIG FORK       RAIN      52  48  87 W7        29.75F
GRAND RAPIDS   RAIN      50  48  93 W12G21    29.80F
COOK           DRIZZLE   50  48  93 SW10G17   29.71F
WALKER         LGT RAIN  48  46  90 W18G29    29.86S
$$
MNZ012-019>021-037-260600-
   Northeast Minnesota

CITY           SKY/WX    TMP DP  RH WIND       PRES   REMARKS
DULUTH         CLOUDY    51  48  89 W22G28    29.77F
ELY            CLOUDY    50  48  93 W8G16     29.69F FOG
HIBBING        CLOUDY    49  48  97 W7        29.74F FOG
EVELETH        CLOUDY    53  51  95 W13       29.74F FOG
DULUTH HARBOR  CLOUDY    55  50  82 SW18G25   29.78F
TWO HARBORS    CLOUDY    55  50  82 W13       29.73F
SILVER BAY     CLOUDY    54  50  87 SW7       29.70F
GRAND MARAIS     N/A     57  53  86 W7        29.67F
G MARAIS ARPRT CLOUDY    52  46  82 SW5       29.68F
$$
MNZ029>031-032-039>041-046>048-054>057-064-260600-
   West Central Minnesota

CITY           SKY/WX    TMP DP  RH WIND       PRES   REMARKS
FERGUS FALLS   CLOUDY    52  45  76 NW7       30.02S
MORRIS         CLOUDY    52  39  62 NW8       30.02F
ALEXANDRIA     CLOUDY    51  46  83 W10       30.01F
ELBOW LAKE     CLOUDY    53  43  68 NW13G18   30.02S
GLENWOOD       CLOUDY    52  45  76 W10       30.01F
BENSON         MOCLDY    52  37  58 NW8       30.03S
MADISON          N/A     55  39  54 W12       30.07S
WILLMAR        FAIR      54  43  66 W10       30.04S
$$
MNZ033>034-036-042>043-049>051-058-059-260600-
   Central Minnesota

CITY           SKY/WX    TMP DP  RH WIND       PRES   REMARKS
ST CLOUD       CLOUDY    54  45  71 W16       29.96F
SAUK CENTRE    DRIZZLE   52  44  75 W14G28    29.99S
PAYNESVILLE    RAIN      52  44  75 W8        30.01S
AITKIN         MIX PCPN  54  43  66 W9G18     29.85S
PINE RIVER     LGT RAIN  48  48 100 W10       29.92F
BRAINERD       LGT RAIN  50  47  89 W14G24    29.91S FOG
STAPLES        DRIZZLE   48  46  93 W13G21    29.94F
LONG PRAIRIE   DRIZZLE   50  45  81 SW10G17   29.98S
LITTLE FALLS   DRIZZLE   52  43  71 W20       29.95S
LITCHFIELD     CLOUDY    54  45  71 W5        30.01F
BUFFALO        PTCLDY    54  44  68 W10       29.99F
MAPLE LAKE     PTCLDY    54  46  74 W5        30.00S
HUTCHINSON     MOCLDY    51  44  78 W6        30.03S
$$
MNZ037-044-045-052-053-260600-
   East Central Minnesota

CITY           SKY/WX    TMP DP  RH WIND       PRES   REMARKS
PRINCETON      MOCLDY    54  45  71 W9        29.94F
MORA           CLOUDY    50  43  76 W9        29.92S
CAMBRIDGE      CLOUDY    55  43  62 W7        29.91F
MOOSE LAKE     CLOUDY    52  45  76 W14G24    29.82F
HINCKLEY       RAIN      52  45  76 W15G24    29.88S
CLOQUET        CLOUDY    52  45  76 W15       29.79F
MCGREGOR       CLOUDY    50  45  81 W12G21    29.84F
$$
MNZ071>073-080-081-089-090-097-098-260600-
   Southwest Minnesota

CITY           SKY/WX    TMP DP  RH WIND       PRES   REMARKS
MONTEVIDEO     CLEAR     54  39  58 NW12G18   30.06S
GRANITE FALLS  CLEAR     53  41  64 W13       30.07S
CANBY          PTCLDY    53  39  59 NW12      30.10S
MARSHALL       CLEAR     53  38  56 W14       30.08F
REDWOOD FALLS  CLEAR     54  38  54 W16       30.04F
OLIVIA         CLEAR     54  41  62 W14       30.02F
PIPESTONE      CLEAR     48  37  66 W8        30.14S
WINDOM         CLEAR     52  39  62 W10       30.10S
WORTHINGTON    CLEAR     48  40  73 W10       30.14S
JACKSON        CLEAR     54  37  54 W8        30.11F
TRACY          CLEAR     54  40  59 W7        30.09F
$$
MNZ065>067-074>077-082>085-091>093-260600-
   South Central Minnesota

CITY           SKY/WX    TMP DP  RH WIND       PRES   REMARKS
ST JAMES       CLEAR     54  41  62 W10       30.07F
FAIRMONT       CLEAR     55  40  56 W12       30.09S
GLENCOE        CLEAR     53  46  77 W5        30.01S
FARIBAULT      CLEAR     55  45  67 W13       30.02S
OWATONNA       CLEAR     54  43  66 W9        30.02F
WASECA         CLEAR     52  43  71 W8        30.05S
ALBERT LEA     CLEAR     54  45  71 W6        30.05F
$$
MNZ078>079-086>088-094>096-260600-
   Southeast Minnesota

CITY           SKY/WX    TMP DP  RH WIND       PRES   REMARKS
ROCHESTER      CLEAR     53  48  83 W9        30.02S
RED WING       CLEAR     54  48  82 W5        29.97S
STANTON        CLEAR     53  46  76 W5        29.99S
DODGE CENTER   CLEAR     52  46  82 W9        30.02S
WINONA         CLEAR     57  48  72 W7        29.99S
AUSTIN         CLEAR     54  45  71 W9        30.04S
PRESTON        CLEAR     52  48  85 W9        30.03S
$$
ABBREVIATIONS USED IN REMARKS
   TC - TEMPERATURES IN CELSIUS
  WCI - WIND CHILL INDEX
   HX - HEAT INDEX
  VSB - VISIBILITY
$$



USA.gov is the U.S. government's official web portal to all federal, state and local government web resources and services.